Regional Weather Roundup
Issued by NWS Sterling, VA

Home | Current Version | Previous Version | Text Only | Print | Product List | Glossary On
Versions: 1 2 3 4 5 6 7 8 9 10 11 12 13 14 15 16 17 18 19 20 21 22 23 24 25 26 27 28 29 30 31 32 33 34 35 36 37 38 39 40 41 42 43 44 45 46 47 48 49 50
000
ASUS41 KLWX 271910
RWRLWX

REGIONAL WEATHER ROUNDUP
NATIONAL WEATHER SERVICE BALTIMORE MD/WASHINGTON DC
300 PM EDT MON APR 27 2015

Note: "FAIR" indicates few or no clouds below 12,000 feet
with no significant weather and/or obstructions to visibility.
 TC=TEMPERATURE CELSIUS

 * =Non NWS site. Station does not report precipitation (e.g. rain,
    snow, etc.), thunder, or fog.

DCZ001-MDZ009-015-VAZ040>042-051-053>054-272000-
WASHINGTON METRO

CITY           SKY/WX    TMP DP  RH WIND       PRES   REMARKS
WASHINGTON NAT PTSUNNY   60  35  39 NW15G22   29.79F
DULLES         PTSUNNY   58  34  40 NW18G24   29.80F
ANDREWS AFB    PTSUNNY   57  35  43 NW14      29.77F
FT BELVOIR     PTSUNNY   58  34  40 NW17G23   29.79F
COLLEGE PARK*  CLOUDY    57  32  38 NW8       29.78F
LEESBURG*      CLOUDY    55  36  47 NW8       29.81S
MANASSAS*      CLOUDY    57  34  41 NW16G23   29.81S
GAITHERSBURG*  PTSUNNY   55  32  41 NW9G18    29.81F

$$

MDZ006>007-011-014-272000-
BALTIMORE METRO

CITY           SKY/WX    TMP DP  RH WIND       PRES   REMARKS
BWI AIRPORT    PTSUNNY   58  35  42 NW12G22   29.76F
MD SCIENCE CTR   N/A     58  31  35 MISG      29.76F
MARTIN STATE   CLOUDY    61  36  39 W10       29.77F
ANNAPOLIS      CLOUDY    57  35  43 NW13      29.76F
FORT MEADE*    PTSUNNY   59  34  38 NW10G17   29.80F

$$

MDZ012-015-019>023-272000-
MARYLAND EASTERN SHORE

CITY           SKY/WX    TMP DP  RH WIND       PRES   REMARKS
OCEAN CITY     CLOUDY    58  32  37 NW14G21   29.74F
SALISBURY      CLOUDY    60  33  36 NW12G22   29.74F
BAY BRIDGE AP*   N/A    N/A N/A N/A NW9       29.76F
CAMBRIDGE*     MOSUNNY   61  32  33 NW15G23   29.75F
EASTON*        PTSUNNY   63  37  39 NW16G23   29.79F

$$

MDZ017>025-272000-
SOUTHERN MARYLAND

CITY           SKY/WX    TMP DP  RH WIND       PRES   REMARKS
PATUXENT RIVER PTSUNNY   60  37  42 NW15      29.76F
ST INIGOES     CLOUDY    61  36  39 NW8       29.76F
LEONARDTOWN*   CLOUDY    59  32  36 NW8       29.78F

$$

MDZ003>005-272000-
NORTH CENTRAL MARYLAND

CITY           SKY/WX    TMP DP  RH WIND       PRES   REMARKS
FREDERICK*     PTSUNNY   61  27  27 NW13      29.80
HAGERSTOWN APT CLOUDY    55  32  41 NW17G23   29.79F
WESTMINSTER*   NOT AVBL

$$

MDZ501>502-272000-
WESTERN MARYLAND

CITY           SKY/WX    TMP DP  RH WIND       PRES   REMARKS
OAKLAND*       CLOUDY    37  37 100 NW8G16    29.84S
CUMBERLAND*    PTSUNNY   55  32  41 NW13      29.87F

$$

VAZ025>031-272000-
SHENANDOAH VALLEY

CITY           SKY/WX    TMP DP  RH WIND       PRES   REMARKS
WINCHESTER*    CLOUDY    54  27  35 NW14G22   29.82R
FRONT ROYAL*   CLOUDY    55  34  44 N6        29.81F
LURAY*         CLOUDY    55  34  44 NW10G17   29.84S
NEW MARKET*    CLOUDY    55  32  41 NW9G17    29.83F
STAUNTON*      MOSUNNY   57  30  36 NW15      29.85F
WAYNESBORO*    FAIR      55  31  39 N18G25    29.82S

$$

WVZ021-048>050-054>055-272000-
EASTERN WEST VIRGINIA PANHANDLE

CITY           SKY/WX    TMP DP  RH WIND       PRES   REMARKS
MARTINSBURG    CLOUDY    56  31  38 NW21      29.81S
PETERSBURG*    CLOUDY    52  29  41 NW16      29.87S

$$

VAZ036>039-050-272000-
CENTRAL FOOTHILLS

CITY           SKY/WX    TMP DP  RH WIND       PRES   REMARKS
CHARLOTTESVILL CLOUDY    58  32  37 N12G20    29.81R
CULPEPER*      MOSUNNY   61  34  36 W13G20    29.82S
ORANGE*        PTSUNNY   59  32  36 W14G21    29.83S
GORDONSVILLE*  CLOUDY    57  33  40 N10G16    29.80S
WARRENTON*     CLOUDY    58  37  43 NW13G20   29.81S

$$

VAZ055>057-272000-
NORTH AND CENTRAL PIEDMONT

CITY           SKY/WX    TMP DP  RH WIND       PRES   REMARKS
FREDERICKSBRG* CLOUDY    59  35  40 N8G17     29.79F
STAFFORD*      CLOUDY    58  33  39 NW9G16    29.84S

$$

NCZ024-NYZ072-PAZ021-071-VAZ022-071-272000-
OTHER REGIONAL OBSERVATIONS

CITY           SKY/WX    TMP DP  RH WIND       PRES   REMARKS
NEW YORK CITY  CLOUDY    59  30  33 VRB7      29.68S
PHILADELPHIA   CLOUDY    59  30  33 NW13G21   29.73S
PITTSBURGH     CLOUDY    45  37  73 NW16      29.91R
ROANOKE        PTSUNNY   57  31  37 W12G21    29.85F
RICHMOND       PTSUNNY   63  34  33 N12       29.77F
RALEIGH        MOSUNNY   66  39  37 VRB6      29.79F

$$

ANZ530>537-272000-
MARINE OBSERVATIONS

STATION/POSITION TIME  TEMP    WIND        PRES
                       AIR SEA DIR/SP/G
                 (UTC) (F)     (DEG/KT/KT) (MB)
THOMAS PT LIGHT  1900   56 54  300/ 13/ 14 1008.4F
BALT KEY BRIDGE  1800   55     280/ 12/ 15 1008.3R
COVE POINT       1800   53      40/  7/  8 1009.0F
LEWISETTA        1800   58 58              1007.8F
SOLOMONS ISLAND  1800      56                N/A
PINEY POINT      1800          330/ 15/ 17   N/A

$$




USA.gov is the U.S. government's official web portal to all federal, state and local government web resources and services.